| time (UTC) | temp F | wind direction | speed knots | gust knots | rain 1hr in | rain 24hr in | rain mn in | humidity % | barometer mb |
| 20260505051549 | 66 | 160 | 0.0 | 4.3 | 0.00 | 0.00 | 0.00 | 73 | 1006.0 |
| 20260505041545 | 67 | 0 | 0.0 | 3.5 | 0.00 | 0.00 | 0.00 | 72 | 1006.0 |
| 20260505040051 | 66 | 0 | 0.0 | 3.5 | 0.00 | 0.00 | 0.00 | 72 | 1006.0 |
| 20260505034601 | 66 | 0 | 0.0 | 2.6 | 0.00 | 0.00 | 0.00 | 73 | 1006.6 |
| 20260505033052 | 66 | 98 | 0.0 | 2.6 | 0.00 | 0.00 | 0.00 | 73 | 1006.7 |
| 20260505031545 | 66 | 0 | 0.0 | 3.5 | 0.00 | 0.00 | 0.00 | 72 | 1006.8 |
| 20260505030046 | 67 | 0 | 0.0 | 2.6 | 0.00 | 0.00 | 0.00 | 71 | 1006.7 |
| 20260505024549 | 67 | 190 | 0.9 | 3.5 | 0.00 | 0.00 | 0.00 | 71 | 1006.6 |
| 20260505023050 | 67 | 0 | 0.0 | 2.6 | 0.00 | 0.00 | 0.00 | 71 | 1006.4 |
| 20260505021544 | 67 | 141 | 0.0 | 3.5 | 0.00 | 0.00 | 0.00 | 70 | 1006.2 |
| 20260505020045 | 67 | 0 | 0.0 | 2.6 | 0.00 | 0.00 | 0.00 | 70 | 1006.1 |
| 20260505014551 | 68 | 0 | 0.0 | 0.9 | 0.00 | 0.00 | 0.00 | 70 | 1006.0 |
| 20260505013105 | 69 | 0 | 0.0 | 0.0 | 0.00 | 0.00 | 0.00 | 68 | 1006.1 |
| 20260505011558 | 70 | 0 | 0.0 | 0.9 | 0.00 | 0.00 | 0.00 | 66 | 1006.0 |
| 20260505010039 | 71 | 0 | 0.0 | 2.6 | 0.00 | 0.00 | 0.00 | 65 | 1005.8 |
| 20260505004547 | 71 | 162 | 0.0 | 2.6 | 0.00 | 0.00 | 0.00 | 63 | 1005.8 |
| 20260505003052 | 72 | 4 | 0.0 | 5.2 | 0.00 | 0.00 | 0.00 | 62 | 1005.7 |
| 20260505001558 | 73 | 0 | 2.6 | 8.7 | 0.00 | 0.00 | 0.00 | 60 | 1005.7 |
| 20260505000100 | 74 | 11 | 0.9 | 7.8 | 0.00 | 0.00 | 0.00 | 59 | 1005.6 |
| 20260504234540 | 75 | 194 | 1.7 | 7.0 | 0.00 | 0.00 | 0.00 | 58 | 1005.6 |
| 20260504233102 | 76 | 235 | 1.7 | 7.8 | 0.00 | 0.00 | 0.00 | 56 | 1005.6 |
| 20260504231546 | 76 | 179 | 0.9 | 7.0 | 0.00 | 0.00 | 0.00 | 56 | 1005.5 |
| 20260504230046 | 77 | 156 | 0.9 | 5.2 | 0.00 | 0.00 | 0.00 | 54 | 1005.5 |
| 20260504224544 | 77 | 174 | 1.7 | 9.6 | 0.00 | 0.00 | 0.00 | 54 | 1005.4 |
| 20260504223044 | 78 | 157 | 0.9 | 7.8 | 0.00 | 0.00 | 0.00 | 55 | 1005.3 |
| 20260504221539 | 78 | 146 | 0.0 | 9.6 | 0.00 | 0.00 | 0.00 | 54 | 1005.4 |
| 20260504220050 | 79 | 126 | 1.7 | 7.0 | 0.00 | 0.00 | 0.00 | 52 | 1005.4 |
| 20260504214542 | 79 | 0 | 2.6 | 7.0 | 0.00 | 0.00 | 0.00 | 51 | 1005.5 |
| 20260504213049 | 80 | 149 | 3.5 | 10.4 | 0.00 | 0.00 | 0.00 | 51 | 1005.4 |
| 20260504211543 | 81 | 122 | 1.7 | 7.0 | 0.00 | 0.00 | 0.00 | 51 | 1005.8 |
| 20260504210043 | 81 | 192 | 0.9 | 6.1 | 0.00 | 0.00 | 0.00 | 53 | 1005.9 |
| 20260504204547 | 81 | 131 | 0.9 | 7.0 | 0.00 | 0.00 | 0.00 | 52 | 1006.1 |
| 20260504203055 | 81 | 128 | 1.7 | 8.7 | 0.00 | 0.00 | 0.00 | 50 | 1006.3 |
| 20260504201546 | 81 | 30 | 0.9 | 8.7 | 0.00 | 0.00 | 0.00 | 51 | 1006.5 |
| 20260504200045 | 82 | 89 | 1.7 | 9.6 | 0.00 | 0.00 | 0.00 | 51 | 1006.7 |
| 20260504194548 | 81 | 63 | 0.9 | 7.8 | 0.00 | 0.00 | 0.00 | 52 | 1007.0 |
| 20260504193043 | 81 | 236 | 1.7 | 7.8 | 0.00 | 0.00 | 0.00 | 50 | 1007.1 |
| 20260504191606 | 80 | 200 | 2.6 | 12.2 | 0.00 | 0.00 | 0.00 | 50 | 1007.0 |
| 20260504190041 | 80 | 215 | 2.6 | 13.0 | 0.00 | 0.00 | 0.00 | 54 | 1006.9 |
| 20260504184539 | 80 | 104 | 3.5 | 10.4 | 0.00 | 0.00 | 0.00 | 51 | 1007.1 |
| 20260504183046 | 80 | 218 | 1.7 | 8.7 | 0.00 | 0.00 | 0.00 | 52 | 1007.2 |
| 20260504181551 | 79 | 156 | 1.7 | 9.6 | 0.00 | 0.00 | 0.00 | 52 | 1007.2 |
| 20260504180044 | 79 | 94 | 1.7 | 9.6 | 0.00 | 0.00 | 0.00 | 52 | 1007.4 |
| 20260504174540 | 79 | 270 | 3.5 | 9.6 | 0.00 | 0.00 | 0.00 | 52 | 1007.5 |
| 20260504173038 | 79 | 22 | 0.9 | 10.4 | 0.00 | 0.00 | 0.00 | 52 | 1007.8 |
| 20260504171546 | 78 | 137 | 2.6 | 9.6 | 0.00 | 0.00 | 0.00 | 52 | 1007.7 |
| 20260504081551 | 62 | 214 | 0.9 | 6.1 | 0.00 | 0.00 | 0.00 | 61 | 1010.7 |